Location: Alafon
(8.4500°N, 4.2333°E)
Time: 16:50:47
(UTC+00:00)

Transit 2A - Pass Details

Date: 02 August 2021
Orbit: 595 x 964 km, 66.7° (Epoch: 18 September)

Event Time Altitude Azimuth Distance (km) Brightness Sun altitude
Rises 04:28:22 0° 204° (SSW) 2,880 - -16.3°
Reaches altitude 10° 04:30:40 10° 206° (SSW) 1,949 - -15.8°
Exits shadow 04:31:57 19° 209° (SSW) 1,444 7.0 -15.5°
Maximum altitude 04:34:59 71° 290° (WNW) 629 5.4 -14.8°
Drops below altitude 10° 04:39:14 10° 15° (NNE) 1,926 8.6 -13.8°
Sets 04:41:30 0° 17° (NNE) 2,843 9.5 -13.3°
